sat.trackr.live / text

‹ back to catalog

STARLINK-4347

NORAD 53076 · 2022-077AK

PAYLOAD ACTIVE UNKNOWN

§ Identity

Operator
Country
US
Launch date
2022-07-11
Launch site
AFWTR
Launch vehicle
Mass (kg)
RCS (m²)

Purposes: comms

External: N2YO · Heavens-Above · Gunter

§ Orbital elements

Epoch: 2026-05-25T02:03:08.015616Z

Period
95.64 min
Inclination
97.4473°
Eccentricity
0.0001569
Mean motion
15.05657258 rev/d
Perigee alt
548.4 km
Apogee alt
550.6 km
Semi-major
6,927.6 km
B*
-1.2835e-4
RAAN
324.9955°
Arg perigee
63.7386°
Mean anomaly
296.4003°
Rev number
21,240

§ Raw data

STARLINK-43471 53076U 22077AK  26145.08550944 -.00001910  00000+0 -12835-3 0  99962 53076  97.4473 324.9955 0001569  63.7386 296.4003 15.05657258212405

JSON: /api/v1/satellites/53076 · /tle

For live sub-satellite position, see the globe view (requires WebGL).

§ Visibility from observer

Set your observer location to see the next 7 days of passes ≥ 10°. The values pass through the URL so the page stays shareable.

No JS? Fill the form by hand. The geolocation button needs JavaScript.